CKS202 KMCO-CYHZ

Flight info

Callsign CKS202
Flight time 2h 59m
Altitude 37000
Route FATHE4 VIYAP Q87 JROSS Q135 RREGG Q117 SAWED Q108 ZJAAY Q97 YAZUU Q167 EMJAY DCT ALLEX FUNDY5
Aircraft L101/H-SDFGHIRWXY/S

Departure

Time 2026-04-20 21:54
Airport Orlando International Airport (KMCO)

Arrival

Time 2026-04-21 00:53
Airport Halifax / Stanfield International Airport (CYHZ)
Time Latitude Longitude Altitude Speed Heading
2026-04-20 21:26 28.43703 -81.29972 101 ft 0 kts 274°
2026-04-20 21:41 28.43702 -81.29969 99 ft 1 kts 274°
2026-04-20 21:41 28.43702 -81.29957 99 ft 1 kts 274°
2026-04-20 21:41 28.43701 -81.29945 99 ft 2 kts 274°
2026-04-20 21:42 28.43700 -81.29932 98 ft 2 kts 274°
2026-04-20 21:42 28.43699 -81.29919 97 ft 2 kts 273°
2026-04-20 21:42 28.43703 -81.29906 99 ft 2 kts 224°
2026-04-20 21:42 28.43714 -81.29900 99 ft 2 kts 175°
2026-04-20 21:43 28.43716 -81.29900 99 ft 0 kts 169°
2026-04-20 21:46 28.43714 -81.29900 99 ft 2 kts 169°
2026-04-20 21:47 28.43690 -81.29895 100 ft 5 kts 172°
2026-04-20 21:47 28.43640 -81.29890 100 ft 9 kts 176°
2026-04-20 21:47 28.43573 -81.29885 101 ft 9 kts 161°
2026-04-20 21:47 28.43547 -81.29850 102 ft 4 kts 90°
2026-04-20 21:48 28.43548 -81.29805 102 ft 7 kts 89°
2026-04-20 21:48 28.43542 -81.29740 101 ft 9 kts 117°
2026-04-20 21:48 28.43483 -81.29714 101 ft 11 kts 179°
2026-04-20 21:48 28.43395 -81.29712 102 ft 14 kts 179°
2026-04-20 21:49 28.43284 -81.29711 101 ft 18 kts 179°
2026-04-20 21:49 28.43148 -81.29709 101 ft 21 kts 179°
2026-04-20 21:49 28.42990 -81.29707 103 ft 24 kts 179°
2026-04-20 21:49 28.42807 -81.29705 101 ft 27 kts 179°
2026-04-20 21:50 28.42609 -81.29705 100 ft 30 kts 179°
2026-04-20 21:50 28.42392 -81.29699 103 ft 29 kts 181°
2026-04-20 21:50 28.42179 -81.29702 101 ft 32 kts 180°
2026-04-20 21:50 28.41970 -81.29694 102 ft 30 kts 180°
2026-04-20 21:51 28.41756 -81.29692 101 ft 32 kts 182°
2026-04-20 21:51 28.41546 -81.29694 102 ft 29 kts 180°
2026-04-20 21:51 28.41338 -81.29690 101 ft 30 kts 179°
2026-04-20 21:51 28.41120 -81.29688 101 ft 33 kts 179°
2026-04-20 21:52 28.40946 -81.29685 100 ft 16 kts 179°
2026-04-20 21:52 28.40838 -81.29668 99 ft 13 kts 135°
2026-04-20 21:52 28.40837 -81.29579 98 ft 12 kts 50°
2026-04-20 21:52 28.40879 -81.29559 100 ft 0 kts 359°
2026-04-20 21:54 28.41138 -81.29560 103 ft 82 kts 359°
2026-04-20 21:54 28.41993 -81.29576 152 ft 156 kts
2026-04-20 21:54 28.43157 -81.29632 1002 ft 169 kts
2026-04-20 21:55 28.44292 -81.29692 2374 ft 161 kts
2026-04-20 21:55 28.45407 -81.29484 3481 ft 165 kts 20°
2026-04-20 21:55 28.46398 -81.29020 4655 ft 138 kts 26°
2026-04-20 21:55 28.47245 -81.28504 5454 ft 148 kts 29°
2026-04-20 21:56 28.48199 -81.27854 5856 ft 167 kts 30°
2026-04-20 21:56 28.49272 -81.27090 6110 ft 203 kts 30°
2026-04-20 21:56 28.50638 -81.26294 6379 ft 232 kts 21°
2026-04-20 21:56 28.52216 -81.25713 6414 ft 246 kts 14°
2026-04-20 21:57 28.53996 -81.25341 6137 ft 276 kts
2026-04-20 21:57 28.55963 -81.25237 6601 ft 283 kts 360°
2026-04-20 21:57 28.57869 -81.25340 7715 ft 262 kts 354°
2026-04-20 21:57 28.59644 -81.25548 8746 ft 254 kts 352°
2026-04-20 21:58 28.61418 -81.25789 9266 ft 264 kts 352°
2026-04-20 21:58 28.63324 -81.26057 9490 ft 285 kts 352°
2026-04-20 21:58 28.65304 -81.26319 10174 ft 285 kts 352°
2026-04-20 21:58 28.67232 -81.26556 11122 ft 276 kts 352°
2026-04-20 21:59 28.69162 -81.26796 11622 ft 286 kts 351°
2026-04-20 21:59 28.71214 -81.27069 11765 ft 307 kts 351°
2026-04-20 21:59 28.73403 -81.27374 11879 ft 326 kts 351°
2026-04-20 21:59 28.75720 -81.27698 11994 ft 345 kts 351°
2026-04-20 22:00 28.78155 -81.28032 12109 ft 360 kts 351°
2026-04-20 22:00 28.80688 -81.28375 12321 ft 371 kts 351°
2026-04-20 22:00 28.83209 -81.28708 12952 ft 369 kts 352°
2026-04-20 22:00 28.85793 -81.28993 13342 ft 376 kts 353°
2026-04-20 22:01 28.88403 -81.29211 13921 ft 377 kts 353°
2026-04-20 22:01 28.91038 -81.29404 14392 ft 380 kts 353°
2026-04-20 22:01 28.93696 -81.29611 14832 ft 384 kts 352°
2026-04-20 22:01 28.96371 -81.29844 15319 ft 387 kts 352°
2026-04-20 22:02 28.99059 -81.30097 15869 ft 389 kts 351°
2026-04-20 22:02 29.01766 -81.30388 16352 ft 393 kts 349°
2026-04-20 22:02 29.04494 -81.30705 16841 ft 396 kts 349°
2026-04-20 22:02 29.07249 -81.31026 17370 ft 399 kts 349°
2026-04-20 22:03 29.10031 -81.31327 17854 ft 404 kts 349°
2026-04-20 22:03 29.12854 -81.31551 18358 ft 409 kts 351°
2026-04-20 22:03 29.15713 -81.31706 18822 ft 413 kts 351°
2026-04-20 22:03 29.18589 -81.31846 19296 ft 415 kts 351°
2026-04-20 22:04 29.21478 -81.32008 19791 ft 417 kts 351°
2026-04-20 22:04 29.24380 -81.32194 20281 ft 420 kts 350°
2026-04-20 22:04 29.27301 -81.32386 20857 ft 420 kts 350°
2026-04-20 22:04 29.30218 -81.32567 21402 ft 422 kts 350°
2026-04-20 22:05 29.33159 -81.32745 21915 ft 425 kts 350°
2026-04-20 22:05 29.36130 -81.32925 22441 ft 428 kts 350°
2026-04-20 22:05 29.39113 -81.33106 22939 ft 431 kts 350°
2026-04-20 22:05 29.42081 -81.33286 23448 ft 434 kts 349°
2026-04-20 22:06 29.45109 -81.33469 23941 ft 438 kts 349°
2026-04-20 22:06 29.48158 -81.33653 24381 ft 441 kts 349°
2026-04-20 22:06 29.51233 -81.33838 24835 ft 444 kts 349°
2026-04-20 22:06 29.54327 -81.34025 25285 ft 446 kts 349°
2026-04-20 22:07 29.57435 -81.34212 25676 ft 451 kts 349°
2026-04-20 22:07 29.60611 -81.34410 25800 ft 462 kts 349°
2026-04-20 22:07 29.63851 -81.34617 25930 ft 470 kts 349°
2026-04-20 22:07 29.67115 -81.34814 26339 ft 469 kts 349°
2026-04-20 22:08 29.70368 -81.34992 26822 ft 468 kts 349°
2026-04-20 22:08 29.73615 -81.35161 27306 ft 466 kts 349°
2026-04-20 22:08 29.76846 -81.35334 27787 ft 464 kts 349°
2026-04-20 22:08 29.80061 -81.35517 28277 ft 462 kts 349°
2026-04-20 22:09 29.83265 -81.35703 28829 ft 460 kts 349°
2026-04-20 22:09 29.86441 -81.35884 29567 ft 453 kts 348°
2026-04-20 22:09 29.89578 -81.36059 30117 ft 451 kts 348°
2026-04-20 22:09 29.92708 -81.36238 30619 ft 449 kts 348°
2026-04-20 22:10 29.95829 -81.36421 30982 ft 449 kts 347°
2026-04-20 22:10 29.98952 -81.36606 31356 ft 449 kts 347°
2026-04-20 22:10 30.02074 -81.36790 31723 ft 450 kts 347°
2026-04-20 22:10 30.05201 -81.36971 32112 ft 450 kts 347°
2026-04-20 22:11 30.08325 -81.37151 32500 ft 450 kts 346°
2026-04-20 22:11 30.11460 -81.37331 32900 ft 450 kts 346°
2026-04-20 22:11 30.14581 -81.37507 33527 ft 447 kts 345°
2026-04-20 22:11 30.17687 -81.37680 33940 ft 447 kts 344°
2026-04-20 22:12 30.20787 -81.37860 34365 ft 446 kts 344°
2026-04-20 22:12 30.23883 -81.38042 34779 ft 445 kts 344°
2026-04-20 22:12 30.26973 -81.38221 35213 ft 444 kts 344°
2026-04-20 22:12 30.30051 -81.38397 35651 ft 442 kts 344°
2026-04-20 22:13 30.33116 -81.38572 36076 ft 440 kts 344°
2026-04-20 22:13 30.36169 -81.38747 36511 ft 438 kts 344°
2026-04-20 22:13 30.39213 -81.38923 36960 ft 436 kts 344°
2026-04-20 22:13 30.42185 -81.39081 37113 ft 420 kts 344°
2026-04-20 22:14 30.45068 -81.39196 37347 ft 425 kts 346°
2026-04-20 22:14 30.48020 -81.39268 38234 ft 419 kts 345°
2026-04-20 22:14 30.50850 -81.39405 39648 ft 394 kts 343°
2026-04-20 22:14 30.53470 -81.39561 41370 ft 361 kts 343°
2026-04-20 22:15 30.55913 -81.39708 42560 ft 348 kts 344°
2026-04-20 22:15 30.58381 -81.39892 42363 ft 366 kts 344°
2026-04-20 22:15 30.60983 -81.40111 41877 ft 386 kts 344°
2026-04-20 22:15 30.63743 -81.40321 41478 ft 411 kts 345°
2026-04-20 22:16 30.66663 -81.40502 40872 ft 426 kts 346°
2026-04-20 22:16 30.69640 -81.40640 40202 ft 428 kts 346°
2026-04-20 22:16 30.72609 -81.40757 39536 ft 425 kts 346°
2026-04-20 22:16 30.75540 -81.40880 39001 ft 418 kts 345°
2026-04-20 22:17 30.78411 -81.41014 38513 ft 408 kts 344°
2026-04-20 22:17 30.81213 -81.41153 38071 ft 398 kts 343°
2026-04-20 22:17 30.83949 -81.41293 37682 ft 391 kts 343°
2026-04-20 22:17 30.86651 -81.41444 37442 ft 388 kts 343°
2026-04-20 22:18 30.89351 -81.41603 37333 ft 389 kts 343°
2026-04-20 22:18 30.94772 -81.41916 37289 ft 392 kts 343°
2026-04-20 22:19 31.00253 -81.42207 37275 ft 393 kts 343°
2026-04-20 22:19 31.05699 -81.42492 37278 ft 391 kts 343°
2026-04-20 22:20 31.09341 -81.42689 37277 ft 391 kts 343°
2026-04-20 22:20 31.16588 -81.43078 37274 ft 392 kts 343°
2026-04-20 22:21 31.22044 -81.43318 37273 ft 399 kts 349°
2026-04-20 22:21 31.24868 -81.42731 37268 ft 428 kts
2026-04-20 22:21 31.27650 -81.41372 37317 ft 435 kts 10°
2026-04-20 22:22 31.33220 -81.38671 37282 ft 432 kts
2026-04-20 22:22 31.38825 -81.36062 37273 ft 436 kts
2026-04-20 22:23 31.44379 -81.33135 37274 ft 439 kts 11°
2026-04-20 22:23 31.49929 -81.30138 37267 ft 439 kts 11°
2026-04-20 22:23 31.52743 -81.28632 37303 ft 453 kts 11°
2026-04-20 22:24 31.55681 -81.27079 37273 ft 473 kts 11°
2026-04-20 22:24 31.58674 -81.25482 37254 ft 484 kts 12°
2026-04-20 22:24 31.61741 -81.23805 37258 ft 488 kts 12°
2026-04-20 22:25 31.67897 -81.20403 37249 ft 490 kts 12°
2026-04-20 22:25 31.74063 -81.17018 37244 ft 489 kts 12°
2026-04-20 22:26 31.80232 -81.13628 37246 ft 489 kts 12°
2026-04-20 22:26 31.86398 -81.10243 37227 ft 489 kts 12°
2026-04-20 22:27 31.95647 -81.05169 37219 ft 489 kts 12°
2026-04-20 22:27 32.01806 -81.01767 37215 ft 489 kts 12°
2026-04-20 22:28 32.07962 -80.98315 37234 ft 489 kts 12°
2026-04-20 22:28 32.14088 -80.94879 37238 ft 487 kts 12°
2026-04-20 22:29 32.20211 -80.91455 37266 ft 487 kts 12°
2026-04-20 22:29 32.26295 -80.88045 37270 ft 487 kts 12°
2026-04-20 22:30 32.32429 -80.84602 37291 ft 488 kts 13°
2026-04-20 22:30 32.38559 -80.81151 37260 ft 488 kts 13°
2026-04-20 22:31 32.44686 -80.77699 37260 ft 488 kts 13°
2026-04-20 22:31 32.50818 -80.74240 37259 ft 488 kts 13°
2026-04-20 22:32 32.56946 -80.70778 37292 ft 488 kts 13°
2026-04-20 22:32 32.63061 -80.67316 37262 ft 487 kts 13°
2026-04-20 22:33 32.69121 -80.63611 37199 ft 504 kts 24°
2026-04-20 22:33 32.71787 -80.60783 37206 ft 523 kts 37°
2026-04-20 22:33 32.74196 -80.57522 37269 ft 526 kts 38°
2026-04-20 22:34 32.79214 -80.51217 37258 ft 524 kts 35°
2026-04-20 22:34 32.84244 -80.44889 37248 ft 527 kts 38°
2026-04-20 22:35 32.89092 -80.38361 37247 ft 526 kts 39°
2026-04-20 22:35 32.93110 -80.32931 37243 ft 526 kts 38°
2026-04-20 22:36 32.97947 -80.26386 37245 ft 526 kts 39°
2026-04-20 22:36 33.02772 -80.19820 37241 ft 527 kts 39°
2026-04-20 22:37 33.07591 -80.13248 37231 ft 527 kts 39°
2026-04-20 22:37 33.12431 -80.06639 37241 ft 530 kts 39°
2026-04-20 22:38 33.17272 -80.00008 37238 ft 530 kts 39°
2026-04-20 22:38 33.22115 -79.93363 37235 ft 530 kts 39°
2026-04-20 22:39 33.26956 -79.86711 37267 ft 530 kts 39°
2026-04-20 22:39 33.31772 -79.80074 37220 ft 525 kts 39°
2026-04-20 22:40 33.36528 -79.73502 37239 ft 523 kts 40°
2026-04-20 22:40 33.41269 -79.66886 37241 ft 524 kts 40°
2026-04-20 22:41 33.46012 -79.60253 37244 ft 524 kts 40°
2026-04-20 22:41 33.50771 -79.53642 37245 ft 524 kts 40°
2026-04-20 22:42 33.55491 -79.47079 37258 ft 521 kts 40°
2026-04-20 22:42 33.60209 -79.40506 37240 ft 519 kts 40°
2026-04-20 22:43 33.64932 -79.33926 37244 ft 521 kts 40°
2026-04-20 22:43 33.69654 -79.27325 37247 ft 521 kts 40°
2026-04-20 22:44 33.74367 -79.20692 37312 ft 522 kts 40°
2026-04-20 22:44 33.79076 -79.14073 37246 ft 520 kts 40°
2026-04-20 22:45 33.83778 -79.07472 37239 ft 519 kts 40°
2026-04-20 22:45 33.88477 -79.00869 37243 ft 520 kts 41°
2026-04-20 22:46 33.93178 -78.94252 37234 ft 520 kts 41°
2026-04-20 22:46 33.97884 -78.87612 37262 ft 521 kts 41°
2026-04-20 22:47 34.02574 -78.80985 37229 ft 519 kts 41°
2026-04-20 22:47 34.07253 -78.74358 37239 ft 519 kts 41°
2026-04-20 22:48 34.11934 -78.67721 37246 ft 519 kts 41°
2026-04-20 22:48 34.16612 -78.61076 37237 ft 521 kts 41°
2026-04-20 22:49 34.21263 -78.54456 37266 ft 521 kts 42°
2026-04-20 22:49 34.26099 -78.48021 37231 ft 510 kts 34°
2026-04-20 22:50 34.31406 -78.42380 37226 ft 508 kts 33°
2026-04-20 22:50 34.36661 -78.36639 37228 ft 509 kts 34°
2026-04-20 22:51 34.41930 -78.30920 37207 ft 508 kts 33°
2026-04-20 22:51 34.47226 -78.25249 37222 ft 507 kts 33°
2026-04-20 22:52 34.52498 -78.19588 37213 ft 506 kts 33°
2026-04-20 22:52 34.57768 -78.13925 37219 ft 506 kts 33°
2026-04-20 22:53 34.63042 -78.08252 37218 ft 506 kts 33°
2026-04-20 22:53 34.68307 -78.02579 37231 ft 506 kts 34°
2026-04-20 22:54 34.73551 -77.96914 37225 ft 504 kts 34°
2026-04-20 22:54 34.78759 -77.91283 37228 ft 505 kts 34°
2026-04-20 22:55 34.84014 -77.85593 37217 ft 506 kts 34°
2026-04-20 22:55 34.89313 -77.79951 37256 ft 505 kts 33°
2026-04-20 22:56 34.94652 -77.74407 37220 ft 503 kts 33°
2026-04-20 22:56 34.99966 -77.68870 37216 ft 502 kts 33°
2026-04-20 22:57 35.05286 -77.63346 37211 ft 502 kts 33°
2026-04-20 22:57 35.10607 -77.57820 37213 ft 502 kts 33°
2026-04-20 22:58 35.16139 -77.52692 37216 ft 494 kts 24°
2026-04-20 22:58 35.22036 -77.48411 37217 ft 494 kts 24°
2026-04-20 22:59 35.27885 -77.43971 37216 ft 495 kts 25°
2026-04-20 22:59 35.33740 -77.39535 37213 ft 494 kts 24°
2026-04-20 23:00 35.39601 -77.35148 37204 ft 494 kts 24°
2026-04-20 23:00 35.45469 -77.30742 37198 ft 494 kts 24°
2026-04-20 23:01 35.51334 -77.26332 37200 ft 494 kts 24°
2026-04-20 23:01 35.57191 -77.21923 37257 ft 494 kts 25°
2026-04-20 23:02 35.63069 -77.17491 37216 ft 497 kts 25°
2026-04-20 23:02 35.68919 -77.13068 37211 ft 497 kts 25°
2026-04-20 23:03 35.74808 -77.08595 37200 ft 497 kts 25°
2026-04-20 23:03 35.80692 -77.04119 37225 ft 497 kts 25°
2026-04-20 23:04 35.86585 -76.99652 37212 ft 497 kts 25°
2026-04-20 23:04 35.92496 -76.95282 37202 ft 494 kts 22°
2026-04-20 23:05 35.98541 -76.91282 37199 ft 493 kts 21°
2026-04-20 23:05 36.04576 -76.87241 37235 ft 493 kts 22°
2026-04-20 23:06 36.10607 -76.83194 37227 ft 494 kts 22°
2026-04-20 23:06 36.16685 -76.79141 37207 ft 497 kts 22°
2026-04-20 23:07 36.22770 -76.75071 37205 ft 497 kts 22°
2026-04-20 23:07 36.28858 -76.70992 37205 ft 497 kts 22°
2026-04-20 23:08 36.34923 -76.66921 37201 ft 495 kts 22°
2026-04-20 23:08 36.40987 -76.62848 37198 ft 495 kts 22°
2026-04-20 23:09 36.47042 -76.58772 37204 ft 495 kts 22°
2026-04-20 23:09 36.53045 -76.54723 37209 ft 493 kts 22°
2026-04-20 23:10 36.59058 -76.50656 37260 ft 491 kts 22°
2026-04-20 23:10 36.65079 -76.46586 37269 ft 495 kts 22°
2026-04-20 23:11 36.71139 -76.42480 37292 ft 497 kts 22°
2026-04-20 23:11 36.77198 -76.38360 37268 ft 496 kts 22°
2026-04-20 23:12 36.83251 -76.34240 37265 ft 495 kts 22°
2026-04-20 23:12 36.89296 -76.30120 37228 ft 495 kts 22°
2026-04-20 23:13 36.95334 -76.25996 37233 ft 494 kts 22°
2026-04-20 23:13 37.01351 -76.21878 37230 ft 492 kts 22°
2026-04-20 23:14 37.07357 -76.17763 37244 ft 492 kts 22°
2026-04-20 23:14 37.13360 -76.13643 37250 ft 492 kts 23°
2026-04-20 23:15 37.19379 -76.09504 37252 ft 495 kts 23°
2026-04-20 23:15 37.25392 -76.05362 37249 ft 496 kts 23°
2026-04-20 23:16 37.31443 -76.01183 37266 ft 496 kts 23°
2026-04-20 23:16 37.37494 -75.96997 37278 ft 496 kts 23°
2026-04-20 23:17 37.43534 -75.92811 37270 ft 495 kts 23°
2026-04-20 23:17 37.49565 -75.88624 37268 ft 495 kts 23°
2026-04-20 23:18 37.55557 -75.84348 37273 ft 496 kts 25°
2026-04-20 23:18 37.61462 -75.79816 37274 ft 497 kts 25°
2026-04-20 23:19 37.67393 -75.75322 37283 ft 498 kts 25°
2026-04-20 23:19 37.73382 -75.70833 37273 ft 502 kts 25°
2026-04-20 23:20 37.79382 -75.66315 37283 ft 502 kts 25°
2026-04-20 23:20 37.85330 -75.61698 37262 ft 502 kts 28°
2026-04-20 23:21 37.91085 -75.56660 37267 ft 503 kts 30°
2026-04-20 23:21 37.96844 -75.51630 37267 ft 502 kts 29°
2026-04-20 23:22 38.02577 -75.46662 37257 ft 502 kts 29°
2026-04-20 23:22 38.08295 -75.41478 37241 ft 503 kts 32°
2026-04-20 23:23 38.12970 -75.37043 37257 ft 506 kts 32°
2026-04-20 23:23 38.18644 -75.31705 37257 ft 508 kts 32°
2026-04-20 23:24 38.25239 -75.25495 37264 ft 507 kts 32°
2026-04-20 23:24 38.29988 -75.21005 37265 ft 507 kts 32°
2026-04-20 23:25 38.35647 -75.15649 37266 ft 507 kts 32°
2026-04-20 23:25 38.41307 -75.10280 37293 ft 507 kts 32°
2026-04-20 23:26 38.46932 -75.04857 37249 ft 507 kts 35°
2026-04-20 23:26 38.52293 -74.98949 37258 ft 511 kts 37°
2026-04-20 23:27 38.57753 -74.93147 37261 ft 510 kts 34°
2026-04-20 23:27 38.63248 -74.87494 37262 ft 510 kts 35°
2026-04-20 23:28 38.68742 -74.81761 37262 ft 510 kts 35°
2026-04-20 23:28 38.74231 -74.76019 37265 ft 510 kts 36°
2026-04-20 23:29 38.79539 -74.69952 37302 ft 512 kts 39°
2026-04-20 23:29 38.84777 -74.63774 37270 ft 511 kts 38°
2026-04-20 23:30 38.90035 -74.57657 37269 ft 510 kts 38°
2026-04-20 23:30 38.95257 -74.51483 37267 ft 510 kts 38°
2026-04-20 23:31 39.00660 -74.45609 37268 ft 509 kts 35°
2026-04-20 23:31 39.06105 -74.39793 37261 ft 508 kts 36°
2026-04-20 23:32 39.11527 -74.33939 37248 ft 509 kts 36°
2026-04-20 23:32 39.16967 -74.28065 37248 ft 512 kts 36°
2026-04-20 23:33 39.22422 -74.22157 37254 ft 512 kts 36°
2026-04-20 23:33 39.27864 -74.16249 37256 ft 511 kts 36°
2026-04-20 23:34 39.33302 -74.10331 37261 ft 511 kts 36°
2026-04-20 23:34 39.38735 -74.04406 37272 ft 511 kts 36°
2026-04-20 23:35 39.46885 -73.95507 37273 ft 513 kts 37°
2026-04-20 23:36 39.52350 -73.89535 37252 ft 515 kts 37°
2026-04-20 23:36 39.57773 -73.83574 37258 ft 515 kts 37°
2026-04-20 23:37 39.63228 -73.77561 37267 ft 514 kts 37°
2026-04-20 23:37 39.68681 -73.71539 37263 ft 515 kts 37°
2026-04-20 23:38 39.74132 -73.65505 37271 ft 515 kts 37°
2026-04-20 23:38 39.79587 -73.59455 37274 ft 517 kts 37°
2026-04-20 23:39 39.85064 -73.53366 37256 ft 518 kts 37°
2026-04-20 23:39 39.90528 -73.47253 37250 ft 519 kts 38°
2026-04-20 23:40 39.96000 -73.41116 37265 ft 518 kts 37°
2026-04-20 23:40 40.01470 -73.35004 37256 ft 517 kts 37°
2026-04-20 23:41 40.06935 -73.28891 37250 ft 517 kts 38°
2026-04-20 23:41 40.12218 -73.22438 37272 ft 523 kts 43°
2026-04-20 23:42 40.17327 -73.15666 37252 ft 523 kts 42°
2026-04-20 23:42 40.22490 -73.08960 37248 ft 523 kts 42°
2026-04-20 23:43 40.27641 -73.02236 37244 ft 523 kts 42°
2026-04-20 23:43 40.32739 -72.95541 37253 ft 522 kts 42°
2026-04-20 23:44 40.37904 -72.88749 37252 ft 524 kts 42°
2026-04-20 23:44 40.43014 -72.82013 37248 ft 525 kts 42°
2026-04-20 23:45 40.48161 -72.75211 37265 ft 525 kts 43°
2026-04-20 23:45 40.53301 -72.68402 37250 ft 524 kts 43°
2026-04-20 23:46 40.58430 -72.61592 37248 ft 524 kts 43°
2026-04-20 23:46 40.63564 -72.54762 37239 ft 526 kts 43°
2026-04-20 23:47 40.68752 -72.47846 37253 ft 527 kts 43°
2026-04-20 23:47 40.73858 -72.41018 37236 ft 527 kts 43°
2026-04-20 23:48 40.79006 -72.34120 37243 ft 527 kts 43°
2026-04-20 23:48 40.84180 -72.27172 37259 ft 527 kts 43°
2026-04-20 23:49 40.89276 -72.20310 37275 ft 527 kts 43°
2026-04-20 23:49 40.94415 -72.13377 37250 ft 528 kts 43°
2026-04-20 23:50 40.99591 -72.06377 37265 ft 528 kts 43°
2026-04-20 23:50 41.04688 -71.99467 37256 ft 528 kts 43°
2026-04-20 23:51 41.09817 -71.92496 37258 ft 528 kts 43°
2026-04-20 23:51 41.14936 -71.85524 37254 ft 529 kts 44°
2026-04-20 23:52 41.20068 -71.78518 37240 ft 529 kts 44°
2026-04-20 23:52 41.25191 -71.71504 37237 ft 529 kts 44°
2026-04-20 23:53 41.30304 -71.64489 37241 ft 528 kts 44°
2026-04-20 23:53 41.35413 -71.57463 37235 ft 528 kts 44°
2026-04-20 23:54 41.40522 -71.50421 37234 ft 529 kts 44°
2026-04-20 23:54 41.45642 -71.43347 37233 ft 530 kts 44°
2026-04-20 23:55 41.50757 -71.36261 37251 ft 530 kts 44°
2026-04-20 23:55 41.55862 -71.29172 37243 ft 529 kts 44°
2026-04-20 23:56 41.60958 -71.22078 37216 ft 529 kts 44°
2026-04-20 23:56 41.66047 -71.14977 37230 ft 529 kts 44°
2026-04-20 23:57 41.71133 -71.07864 37212 ft 529 kts 44°
2026-04-20 23:57 41.76210 -71.00744 37211 ft 529 kts 45°
2026-04-20 23:58 41.81286 -70.93609 37236 ft 529 kts 45°
2026-04-20 23:58 41.86355 -70.86467 37213 ft 529 kts 45°
2026-04-20 23:59 41.91434 -70.79294 37227 ft 531 kts 45°
2026-04-20 23:59 41.96523 -70.72089 37230 ft 532 kts 45°
2026-04-21 00:00 42.01612 -70.64865 37250 ft 531 kts 45°
2026-04-21 00:00 42.06690 -70.57639 37248 ft 531 kts 45°
2026-04-21 00:01 42.11759 -70.50409 37237 ft 531 kts 45°
2026-04-21 00:01 42.16808 -70.43188 37250 ft 533 kts 45°
2026-04-21 00:02 42.21886 -70.35909 37236 ft 533 kts 45°
2026-04-21 00:02 42.26960 -70.28616 37239 ft 533 kts 45°
2026-04-21 00:03 42.32024 -70.21319 37245 ft 533 kts 45°
2026-04-21 00:03 42.37084 -70.14011 37247 ft 533 kts 46°
2026-04-21 00:04 42.42149 -70.06674 37254 ft 533 kts 46°
2026-04-21 00:04 42.47207 -69.99330 37264 ft 533 kts 46°
2026-04-21 00:05 42.52260 -69.91976 37259 ft 533 kts 46°
2026-04-21 00:05 42.57306 -69.84612 37232 ft 533 kts 46°
2026-04-21 00:06 42.62345 -69.77239 37265 ft 534 kts 47°
2026-04-21 00:06 42.67390 -69.69838 37263 ft 533 kts 47°
2026-04-21 00:07 42.72428 -69.62430 37259 ft 533 kts 47°
2026-04-21 00:07 42.77458 -69.55015 37267 ft 533 kts 47°
2026-04-21 00:08 42.82477 -69.47597 37252 ft 533 kts 47°
2026-04-21 00:08 42.87466 -69.40201 37255 ft 533 kts 47°
2026-04-21 00:09 42.92490 -69.32736 37256 ft 534 kts 47°
2026-04-21 00:09 42.97504 -69.25269 37257 ft 534 kts 47°
2026-04-21 00:10 43.02515 -69.17785 37226 ft 534 kts 48°
2026-04-21 00:10 43.07528 -69.10281 37253 ft 536 kts 48°
2026-04-21 00:11 43.11733 -69.03971 37253 ft 535 kts 48°
2026-04-21 00:11 43.16735 -68.96445 37257 ft 534 kts 48°
2026-04-21 00:12 43.21738 -68.88898 37256 ft 535 kts 48°
2026-04-21 00:12 43.26734 -68.81343 37253 ft 534 kts 48°
2026-04-21 00:13 43.31686 -68.73833 37248 ft 534 kts 48°
2026-04-21 00:13 43.36668 -68.66258 37247 ft 534 kts 49°
2026-04-21 00:14 43.41651 -68.58663 37255 ft 535 kts 49°
2026-04-21 00:14 43.46624 -68.51062 37250 ft 535 kts 49°
2026-04-21 00:15 43.51602 -68.43435 37244 ft 536 kts 49°
2026-04-21 00:15 43.56592 -68.35771 37243 ft 538 kts 49°
2026-04-21 00:16 43.61585 -68.28082 37249 ft 538 kts 49°
2026-04-21 00:16 43.66578 -68.20371 37247 ft 538 kts 49°
2026-04-21 00:17 43.71561 -68.12653 37245 ft 538 kts 49°
2026-04-21 00:17 43.76545 -68.04912 37246 ft 539 kts 49°
2026-04-21 00:18 43.81517 -67.97168 37253 ft 539 kts 50°
2026-04-21 00:18 43.86491 -67.89402 37246 ft 539 kts 50°
2026-04-21 00:19 43.91459 -67.81622 37237 ft 539 kts 50°
2026-04-21 00:19 43.96423 -67.73828 37244 ft 539 kts 50°
2026-04-21 00:20 44.01378 -67.66027 37201 ft 539 kts 50°
2026-04-21 00:20 44.06332 -67.58204 37228 ft 540 kts 50°
2026-04-21 00:21 44.11299 -67.50343 37222 ft 541 kts 50°
2026-04-21 00:21 44.16260 -67.42472 37239 ft 541 kts 50°
2026-04-21 00:22 44.21217 -67.34581 37221 ft 541 kts 50°
2026-04-21 00:22 44.26165 -67.26683 37225 ft 541 kts 50°
2026-04-21 00:23 44.31108 -67.18772 37226 ft 541 kts 51°
2026-04-21 00:23 44.36047 -67.10842 37218 ft 541 kts 51°
2026-04-21 00:24 44.40824 -67.02820 37231 ft 540 kts 54°
2026-04-21 00:24 44.45356 -66.94456 37209 ft 539 kts 57°
2026-04-21 00:24 44.47347 -66.90037 37186 ft 535 kts 68°
2026-04-21 00:25 44.48645 -66.85224 37155 ft 524 kts 81°
2026-04-21 00:25 44.49529 -66.75209 37247 ft 518 kts 91°
2026-04-21 00:26 44.50345 -66.65108 37215 ft 526 kts 84°
2026-04-21 00:26 44.52072 -66.55114 37153 ft 530 kts 79°
2026-04-21 00:26 44.53042 -66.50107 36594 ft 531 kts 80°
2026-04-21 00:27 44.53937 -66.45140 35968 ft 521 kts 82°
2026-04-21 00:27 44.54723 -66.40234 35394 ft 514 kts 84°
2026-04-21 00:27 44.55437 -66.35333 34829 ft 511 kts 85°
2026-04-21 00:27 44.56121 -66.30441 34279 ft 512 kts 85°
2026-04-21 00:28 44.56819 -66.25542 33650 ft 514 kts 84°
2026-04-21 00:28 44.57553 -66.20626 33005 ft 516 kts 84°
2026-04-21 00:28 44.58319 -66.15687 32374 ft 519 kts 84°
2026-04-21 00:28 44.59101 -66.10734 31756 ft 522 kts 84°
2026-04-21 00:29 44.59884 -66.05746 31146 ft 525 kts 85°
2026-04-21 00:29 44.60656 -66.00737 30549 ft 527 kts 85°
2026-04-21 00:29 44.61423 -65.95689 29881 ft 530 kts 86°
2026-04-21 00:29 44.62182 -65.90616 29104 ft 532 kts 86°
2026-04-21 00:30 44.62937 -65.85538 28405 ft 532 kts 86°
2026-04-21 00:30 44.63690 -65.80444 27722 ft 533 kts 86°
2026-04-21 00:30 44.64435 -65.75350 27061 ft 532 kts 86°
2026-04-21 00:30 44.65170 -65.70248 26411 ft 533 kts 86°
2026-04-21 00:31 44.65897 -65.65148 25775 ft 533 kts 86°
2026-04-21 00:31 44.66626 -65.60042 25152 ft 534 kts 86°
2026-04-21 00:31 44.67361 -65.54983 24523 ft 511 kts 86°
2026-04-21 00:31 44.68068 -65.50423 23475 ft 461 kts 86°
2026-04-21 00:32 44.68747 -65.45926 23207 ft 470 kts 86°
2026-04-21 00:32 44.69391 -65.41427 22829 ft 469 kts 87°
2026-04-21 00:32 44.70008 -65.37026 22150 ft 452 kts 87°
2026-04-21 00:32 44.70606 -65.32679 21602 ft 451 kts 86°
2026-04-21 00:33 44.71192 -65.28343 21146 ft 451 kts 86°
2026-04-21 00:33 44.71760 -65.24080 20699 ft 449 kts 86°
2026-04-21 00:33 44.72347 -65.19711 20378 ft 454 kts 85°
2026-04-21 00:33 44.72940 -65.15404 19875 ft 445 kts 85°
2026-04-21 00:34 44.73533 -65.11171 19336 ft 438 kts 85°
2026-04-21 00:34 44.74113 -65.07001 18839 ft 432 kts 84°
2026-04-21 00:34 44.74678 -65.02867 18327 ft 428 kts 84°
2026-04-21 00:34 44.75228 -64.98776 17763 ft 423 kts 84°
2026-04-21 00:35 44.75770 -64.94723 17160 ft 420 kts 84°
2026-04-21 00:35 44.76321 -64.90687 16657 ft 420 kts 84°
2026-04-21 00:35 44.76871 -64.86666 16130 ft 417 kts 84°
2026-04-21 00:35 44.77420 -64.82678 15617 ft 413 kts 83°
2026-04-21 00:36 44.77984 -64.78746 15120 ft 408 kts 82°
2026-04-21 00:36 44.78556 -64.74859 14629 ft 403 kts 81°
2026-04-21 00:36 44.79150 -64.71018 14160 ft 399 kts 80°
2026-04-21 00:36 44.79768 -64.67234 13635 ft 394 kts 79°
2026-04-21 00:37 44.80365 -64.63493 13115 ft 389 kts 80°
2026-04-21 00:37 44.80915 -64.59787 12615 ft 385 kts 81°
2026-04-21 00:37 44.81427 -64.56120 12116 ft 380 kts 81°
2026-04-21 00:37 44.81916 -64.52491 11637 ft 369 kts 81°
2026-04-21 00:38 44.82380 -64.49044 11194 ft 350 kts 80°
2026-04-21 00:38 44.82836 -64.45754 10771 ft 334 kts 80°
2026-04-21 00:38 44.83279 -64.42624 10383 ft 320 kts 79°
2026-04-21 00:38 44.83704 -64.39624 10161 ft 302 kts 79°
2026-04-21 00:39 44.84106 -64.36770 10084 ft 299 kts 79°
2026-04-21 00:39 44.84527 -64.33764 10128 ft 330 kts 79°
2026-04-21 00:39 44.84984 -64.30515 10064 ft 343 kts 79°
2026-04-21 00:39 44.85450 -64.27225 9975 ft 342 kts 79°
2026-04-21 00:40 44.85918 -64.23943 9969 ft 341 kts 79°
2026-04-21 00:40 44.86387 -64.20661 9952 ft 343 kts 79°
2026-04-21 00:40 44.86863 -64.17383 9507 ft 335 kts 78°
2026-04-21 00:40 44.87359 -64.14170 9038 ft 332 kts 77°
2026-04-21 00:41 44.87840 -64.11172 8585 ft 297 kts 77°
2026-04-21 00:41 44.88286 -64.08411 8258 ft 288 kts 77°
2026-04-21 00:41 44.88725 -64.05665 8125 ft 285 kts 78°
2026-04-21 00:41 44.89151 -64.02951 7809 ft 281 kts 78°
2026-04-21 00:42 44.89567 -64.00273 7482 ft 278 kts 78°
2026-04-21 00:42 44.89977 -63.97616 7120 ft 276 kts 78°
2026-04-21 00:42 44.90382 -63.94983 6784 ft 274 kts 78°
2026-04-21 00:42 44.90785 -63.92364 6435 ft 272 kts 78°
2026-04-21 00:43 44.91182 -63.89779 6164 ft 268 kts 78°
2026-04-21 00:43 44.91577 -63.87219 6041 ft 266 kts 78°
2026-04-21 00:43 44.91970 -63.84666 6023 ft 267 kts 78°
2026-04-21 00:43 44.92553 -63.82191 5954 ft 267 kts 60°
2026-04-21 00:44 44.93565 -63.80014 5985 ft 266 kts 52°
2026-04-21 00:44 44.94687 -63.77932 5995 ft 266 kts 52°
2026-04-21 00:44 44.95723 -63.75763 5938 ft 267 kts 58°
2026-04-21 00:45 44.97384 -63.71338 5163 ft 240 kts 62°
2026-04-21 00:45 44.98127 -63.69314 4930 ft 221 kts 61°
2026-04-21 00:45 44.98821 -63.67494 4775 ft 212 kts 60°
2026-04-21 00:45 44.99556 -63.65626 4615 ft 217 kts 60°
2026-04-21 00:46 45.00299 -63.63768 4478 ft 218 kts 59°
2026-04-21 00:46 45.01046 -63.61909 4352 ft 217 kts 59°
2026-04-21 00:46 45.01792 -63.60053 4205 ft 217 kts 59°
2026-04-21 00:46 45.02528 -63.58224 4074 ft 216 kts 59°
2026-04-21 00:47 45.03265 -63.56387 4028 ft 215 kts 59°
2026-04-21 00:47 45.04005 -63.54543 4015 ft 215 kts 59°
2026-04-21 00:47 45.04744 -63.52703 4009 ft 215 kts 59°
2026-04-21 00:47 45.05482 -63.50861 4013 ft 215 kts 59°
2026-04-21 00:48 45.06216 -63.49015 4008 ft 214 kts 59°
2026-04-21 00:48 45.06766 -63.47087 3967 ft 208 kts 79°
2026-04-21 00:48 45.06638 -63.45076 4013 ft 205 kts 109°
2026-04-21 00:48 45.05970 -63.43297 4201 ft 208 kts 124°
2026-04-21 00:49 45.05130 -63.41663 4138 ft 208 kts 129°
2026-04-21 00:49 45.04247 -63.40064 4041 ft 205 kts 129°
2026-04-21 00:49 45.03238 -63.38676 4001 ft 203 kts 150°
2026-04-21 00:49 45.01907 -63.38114 4002 ft 200 kts 180°
2026-04-21 00:50 45.00576 -63.38515 4005 ft 195 kts 205°
2026-04-21 00:50 44.99418 -63.39475 4024 ft 192 kts 217°
2026-04-21 00:50 44.98428 -63.40720 4007 ft 190 kts 230°
2026-04-21 00:50 44.97481 -63.42052 3665 ft 196 kts 221°
2026-04-21 00:51 44.96352 -63.43076 2930 ft 189 kts 211°
2026-04-21 00:51 44.95252 -63.43981 2337 ft 178 kts 216°
2026-04-21 00:51 44.94261 -63.44955 1853 ft 169 kts 219°
2026-04-21 00:51 44.93348 -63.45898 1488 ft 158 kts 221°
2026-04-21 00:52 44.92498 -63.46802 1254 ft 150 kts 218°
2026-04-21 00:52 44.91621 -63.47660 1126 ft 154 kts 218°
2026-04-21 00:52 44.90751 -63.48549 1013 ft 153 kts 219°
2026-04-21 00:52 44.89881 -63.49430 749 ft 150 kts 217°
2026-04-21 00:53 44.89023 -63.50289 565 ft 153 kts 217°
2026-04-21 00:53 44.88149 -63.51148 461 ft 152 kts 216°
2026-04-21 00:53 44.87362 -63.51939 452 ft 114 kts 216°
2026-04-21 00:53 44.87010 -63.52291 455 ft 38 kts 216°
2026-04-21 00:54 44.86917 -63.52450 454 ft 18 kts 280°
2026-04-21 00:54 44.87008 -63.52539 456 ft 17 kts 349°
2026-04-21 00:54 44.87099 -63.52538 457 ft 8 kts 40°
2026-04-21 00:54 44.87151 -63.52476 457 ft 13 kts 38°
2026-04-21 00:55 44.87238 -63.52387 456 ft 18 kts 36°
2026-04-21 00:55 44.87356 -63.52274 456 ft 23 kts 36°
2026-04-21 00:55 44.87491 -63.52133 457 ft 25 kts 37°
2026-04-21 00:55 44.87619 -63.52014 457 ft 18 kts 33°
2026-04-21 00:56 44.87693 -63.51945 457 ft 20 kts 35°
2026-04-21 00:56 44.87815 -63.51822 457 ft 23 kts 31°
2026-04-21 00:56 44.87952 -63.51686 457 ft 25 kts 38°
2026-04-21 00:56 44.88081 -63.51554 457 ft 20 kts 34°
2026-04-21 00:57 44.88183 -63.51453 455 ft 15 kts 35°
2026-04-21 00:57 44.88244 -63.51394 455 ft 8 kts 32°
2026-04-21 00:57 44.88294 -63.51344 456 ft 4 kts 34°
2026-04-21 00:57 44.88299 -63.51339 455 ft 4 kts 34°
2026-04-21 00:58 44.88344 -63.51294 456 ft 12 kts 38°
2026-04-21 00:58 44.88393 -63.51240 456 ft 8 kts 37°
2026-04-21 00:58 44.88455 -63.51203 456 ft 12 kts 359°
2026-04-21 00:58 44.88542 -63.51223 457 ft 11 kts 349°
2026-04-21 00:59 44.88562 -63.51257 457 ft 6 kts 300°
2026-04-21 00:59 44.88572 -63.51278 457 ft 6 kts 302°
2026-04-21 00:59 44.88604 -63.51349 457 ft 9 kts 303°
2026-04-21 00:59 44.88609 -63.51360 457 ft 0 kts 303°